Flag for USA

Past Weather in 40°18'33.6"N, 84°10'14.6"W, USA — Yesterday and Last 2 Weeks

Now
53 °F

Clear.


Feels Like: 53 °F
Forecast: 78 / 55 °F
Wind: 3 mph from East

Location: Cox Dayton International Airport
Current Time: Sep 25, 2020 at 6:57:52 am
Latest Report: Sep 25, 2020 at 5:56 am
Visibility: 10 mi
Pressure30.01 "Hg
Humidity: 93%
Dew Point: 51 °F
Location of 40°18'33.6"N, 84°10'14.6"WLocation

Past Weather in 40°18'33.6"N, 84°10'14.6"W — Graph

°F

40°18'33.6"N, 84°10'14.6"W Temperature Yesterday

Maximum temperature yesterday: 78 °F (at 3:56 pm)
Minimum temperature yesterday: 58 °F (at 7:56 am)
Average temperature yesterday: 66 °F

High & Low Weather Summary for the Past Weeks

 TemperatureHumidityPressure
High87 °F (Sep 12, 3:56 pm)94% (Sep 13, 2:56 am)30.48 "Hg (Sep 13, 2:56 am)
Low41 °F (Sep 19, 6:56 am)20% (Sep 20, 3:56 pm)29.94 "Hg (Sep 12, 5:56 pm)
Average64 °F66%30.19 "Hg
* Reported Sep 10 5:56 am — Sep 25 5:56 am, 40°18'33.6"N, 84°10'14.6"W. Weather by CustomWeather, © 2020

Note: Actual official high and low records may vary slightly from our data, if they occured in-between our weather recording intervals... More about our weather records

40°18'33.6"N, 84°10'14.6"W Weather History for the Previous 24 Hours

Scroll right to see more
 ConditionsComfort  
Time TempWeatherWind HumidityBarometerVisibility
5:56 am
Fri, Sep 25
53 °FClear.3 mph93%30.01 "Hg10 mi
4:56 am55 °FClear.No wind90%30.00 "Hg10 mi
3:56 am57 °FClear.No wind83%29.99 "Hg10 mi
2:56 am59 °FClear.5 mph81%30.00 "Hg10 mi
1:56 am61 °FClear.3 mph75%30.00 "Hg10 mi
12:56 am60 °FClear.No wind75%30.01 "Hg10 mi
11:56 pm
Thu, Sep 24
60 °FClear.3 mph72%30.01 "Hg10 mi
10:56 pm62 °FClear.No wind67%30.01 "Hg10 mi
9:56 pm65 °FClear.No wind61%30.00 "Hg10 mi
8:56 pm69 °FClear.5 mph53%29.99 "Hg10 mi
7:56 pm71 °FClear.6 mph49%29.98 "Hg10 mi
6:56 pm74 °FPassing clouds.6 mph45%29.97 "Hg10 mi
5:56 pm77 °FPassing clouds.8 mph40%29.97 "Hg10 mi
4:56 pm78 °FPassing clouds.3 mph39%29.97 "Hg10 mi
3:56 pm78 °FPassing clouds.7 mph40%29.97 "Hg10 mi
2:56 pm77 °FPassing clouds.8 mph42%29.99 "Hg10 mi
1:56 pm75 °FPassing clouds.7 mph48%30.01 "Hg10 mi
12:56 pm71 °FScattered clouds.3 mph53%30.03 "Hg10 mi
11:56 am68 °FPartly sunny.3 mph57%30.05 "Hg10 mi
10:56 am67 °FBroken clouds.3 mph61%30.05 "Hg10 mi
9:56 am63 °FPartly sunny.No wind70%30.06 "Hg10 mi
8:56 am62 °FBroken clouds.No wind73%30.05 "Hg10 mi
7:56 am58 °FPartly sunny.3 mph81%30.04 "Hg10 mi
6:56 am59 °FPassing clouds.6 mph81%30.02 "Hg10 mi
Weather by CustomWeather, © 2020

See weather overview